Location: Great Malvern
(52.1167°N, 2.3167°W)
Time: 03:26:20
(UTC+00:00)

Cosmos 1340 Rocket - Pass Details

Date: 18 September 2020
Orbit: 529 x 558 km, 81.2° (Epoch: 22 October)

Event Time Altitude Azimuth Distance (km) Brightness Sun altitude
Exits shadow 21:30:27 31° 360° (N) 964 4.4 -27.6°
Drops below altitude 10° 21:32:40 10° 9° (N) 1,820 5.9 -27.8°
Sets 21:34:52 0° 12° (NNE) 2,723 6.8 -28.1°
